Location: D�derode
(51.8092°N, 10.1065°E)
Time: 00:10:03
(UTC+00:00)

Cosmos 1812 - Pass Details

Date: 17 April 2021
Orbit: 516 x 519 km, 82.5° (Epoch: 10 May)

Event Time Altitude Azimuth Distance (km) Brightness Sun altitude
Exits shadow 01:13:51 18° 303° (WNW) 1,338 4.8 -23.0°
Drops below altitude 10° 01:16:10 10° 340° (NNW) 1,766 5.9 -22.8°
Sets 01:18:51 0° 359° (N) 2,660 7.2 -22.6°
